This is the latest recevied weather packets stored in our database for station/object HS5FXK-3. If no packets are shown the sender has not sent any weather packets the latest 10 day(s).
| Time | Temp. | Humidity | Pressure | Rain* | Wind** | Luminosity | Snow |
|---|---|---|---|---|---|---|---|
| 1777875981 | 43.33° C | 23% | 978 hPa | - | - | 0 W/m² | - |
| 1777875069 | 42.78° C | 23% | 978 hPa | - | - | 0 W/m² | - |
| 1777874009 | 43.33° C | 23% | 978 hPa | - | - | 0 W/m² | - |
| 1777873080 | 43.33° C | 24% | 979 hPa | - | - | 0 W/m² | - |
| 1777872238 | 42.22° C | 23% | 979 hPa | - | - | 0 W/m² | - |
| 1777871325 | 42.78° C | 23% | 979 hPa | - | - | 0 W/m² | - |
| 1777870657 | 42.78° C | 24% | 979 hPa | - | - | 0 W/m² | - |
| 1777870143 | 43.33° C | 25% | 979 hPa | - | - | 0 W/m² | - |
| 1777869210 | 41.11° C | 29% | 980 hPa | - | - | 0 W/m² | - |
| 1777868300 | 41.11° C | 30% | 980 hPa | - | - | 0 W/m² | - |
| 1777867385 | 40.56° C | 32% | 980 hPa | - | - | 0 W/m² | - |
| 1777866473 | 40° C | 32% | 980 hPa | - | - | 0 W/m² | - |
| 1777865561 | 40.56° C | 32% | 980 hPa | - | - | 0 W/m² | - |
| 1777864649 | 38.89° C | 35% | 980 hPa | - | - | 0 W/m² | - |
| 1777863737 | 37.78° C | 37% | 980 hPa | - | - | 0 W/m² | - |
| 1777862824 | 37.22° C | 40% | 980 hPa | - | - | 0 W/m² | - |
| 1777861912 | 36.11° C | 42% | 980 hPa | - | - | 0 W/m² | - |
| 1777861733 | 35.56° C | 42% | 980 hPa | - | - | 0 W/m² | - |
| 1777860822 | 35° C | 44% | 980 hPa | - | - | 0 W/m² | - |
| 1777859908 | 34.44° C | 47% | 980 hPa | - | - | 0 W/m² | - |
| 1777858729 | 33.33° C | 50% | 980 hPa | - | - | 0 W/m² | - |
| 1777857817 | 32.22° C | 55% | 980 hPa | - | - | 0 W/m² | - |
| 1777856926 | 31.11° C | 57% | 980 hPa | - | - | 0 W/m² | - |
| 1777856228 | 31.11° C | 62% | 980 hPa | - | - | 0 W/m² | - |
| 1777855315 | 30° C | 66% | 980 hPa | - | - | 0 W/m² | - |
* Rain since midnight (hover to see other rain measurements)
** Current wind speed in m/s (hover to see current wind gust speed)